K7AKT Weather Reports


time (UTC)temp
C
wind
direction
speed
KPH
gust
KPH
rain 1hr
cm
rain 24hr
cm
rain mn
cm
humidity
%
barometer
mb
20260506071037 14 90 3.2 4.8 0.00 0.00 0.00 61 1017.9
20260506062017 15 0 1.6 9.7 0.00 0.00 0.00 55 1017.1
20260506061037 15 0 1.6 6.4 0.00 0.00 0.00 54 1017.0
20260506051017 16 338 4.8 12.9 0.00 0.00 0.00 53 1016.1
20260506045017 16 338 3.2 11.3 0.00 0.00 0.00 55 1015.6
20260506044017 16 293 3.2 8.0 0.00 0.00 0.00 54 1015.6
20260506043017 16 315 3.2 6.4 0.00 0.00 0.00 56 1015.4
20260506042037 16 270 1.6 8.0 0.00 0.00 0.00 55 1014.9
20260506041017 17 293 4.8 8.0 0.00 0.00 0.00 51 1015.0
20260506040019 17 293 6.4 9.7 0.00 0.00 0.00 49 1014.9
20260506035017 17 293 6.4 14.5 0.00 0.00 0.00 48 1014.1
20260506034017 17 315 4.8 12.9 0.00 0.00 0.00 49 1013.9
20260506033016 18 338 6.4 12.9 0.00 0.00 0.00 50 1013.8
20260506032019 18 0 4.8 9.7 0.00 0.00 0.00 50 1013.0
20260506031019 18 315 4.8 14.5 0.00 0.00 0.00 49 1012.9
20260506030018 19 315 6.4 17.7 0.00 0.00 0.00 47 1012.9
20260506025019 19 293 8.0 19.3 0.00 0.00 0.00 46 1012.4
20260506024019 20 293 9.7 17.7 0.00 0.00 0.00 45 1012.2
20260506023039 20 338 6.4 24.1 0.00 0.00 0.00 44 1012.4
20260506022019 21 338 9.7 24.1 0.00 0.00 0.00 44 1012.1
20260506021039 21 315 4.8 14.5 0.00 0.00 0.00 42 1012.3
20260506020018 21 315 8.0 19.3 0.00 0.00 0.00 40 1012.1
20260506015019 22 315 9.7 19.3 0.00 0.00 0.00 39 1011.8
20260506014019 22 315 11.3 25.7 0.00 0.00 0.00 39 1012.1
20260506013019 22 315 8.0 17.7 0.00 0.00 0.00 40 1012.0
20260506012018 22 315 8.0 20.9 0.00 0.00 0.00 38 1012.2
20260506011019 22 338 6.4 17.7 0.00 0.00 0.00 40 1012.1
20260506010019 22 315 11.3 24.1 0.00 0.00 0.00 41 1011.9
20260506005018 22 315 9.7 24.1 0.00 0.00 0.00 40 1012.4
20260506004039 22 315 9.7 25.7 0.00 0.00 0.00 39 1012.4
20260506003019 22 315 9.7 20.9 0.00 0.00 0.00 38 1012.3
20260506002022 23 338 8.0 22.5 0.00 0.00 0.00 38 1013.2
20260506001019 22 315 6.4 20.9 0.00 0.00 0.00 38 1012.7
20260506000019 23 293 9.7 22.5 0.00 0.00 0.00 34 1012.9
20260505235018 23 293 9.7 19.3 0.00 0.00 0.00 32 1013.3
20260505234017 23 315 11.3 22.5 0.00 0.00 0.00 31 1013.3
20260505233019 23 315 11.3 22.5 0.00 0.00 0.00 31 1013.3
20260505232019 23 293 11.3 22.5 0.00 0.00 0.00 30 1013.6
20260505231019 23 293 12.9 25.7 0.00 0.00 0.00 29 1013.6
20260505230019 24 293 8.0 17.7 0.00 0.00 0.00 29 1013.6
20260505225019 23 293 9.7 24.1 0.00 0.00 0.00 29 1013.7
20260505224020 23 315 4.8 12.9 0.00 0.00 0.00 30 1013.7
20260505223020 23 293 8.0 16.1 0.00 0.00 0.00 30 1013.7
20260505222019 23 270 6.4 12.9 0.00 0.00 0.00 31 1013.7
20260505221039 23 270 9.7 19.3 0.00 0.00 0.00 30 1013.8
20260505220018 22 315 4.8 11.3 0.00 0.00 0.00 31 1013.6
20260505215039 22 293 8.0 19.3 0.00 0.00 0.00 32 1013.7
20260505214019 22 293 6.4 14.5 0.00 0.00 0.00 32 1014.0
20260505213019 22 270 8.0 16.1 0.00 0.00 0.00 32 1014.0
20260505212019 22 270 6.4 14.5 0.00 0.00 0.00 32 1013.9
20260505211018 22 315 8.0 19.3 0.00 0.00 0.00 32 1014.2
20260505210019 22 293 8.0 19.3 0.00 0.00 0.00 34 1014.3
20260505205018 21 293 6.4 12.9 0.00 0.00 0.00 36 1013.8
20260505204038 21 293 6.4 16.1 0.00 0.00 0.00 34 1013.9
20260505203019 21 293 8.0 19.3 0.00 0.00 0.00 37 1013.9
20260505202017 21 293 8.0 16.1 0.00 0.00 0.00 34 1013.7
20260505201039 21 293 9.7 20.9 0.00 0.00 0.00 33 1014.0
20260505200019 21 293 8.0 17.7 0.00 0.00 0.00 34 1013.6
20260505195019 21 0 8.0 16.1 0.00 0.00 0.00 34 1013.9
20260505194019 21 293 9.7 17.7 0.00 0.00 0.00 33 1014.2
20260505193019 21 0 6.4 14.5 0.00 0.00 0.00 35 1013.9
20260505192019 21 315 6.4 16.1 0.00 0.00 0.00 35 1014.2
20260505191019 20 293 8.0 14.5 0.00 0.00 0.00 34 1013.9
20260505190019 21 270 8.0 14.5 0.00 0.00 0.00 33 1014.2
20260505185019 20 315 6.4 17.7 0.00 0.00 0.00 34 1014.2
20260505184018 21 270 6.4 14.5 0.00 0.00 0.00 37 1014.3
20260505183019 20 293 6.4 14.5 0.00 0.00 0.00 35 1014.4
20260505182019 20 293 6.4 12.9 0.00 0.00 0.00 38 1014.5
20260505181018 19 315 6.4 12.9 0.00 0.00 0.00 37 1014.2
20260505180019 19 315 4.8 14.5 0.00 0.00 0.00 39 1014.2
20260505175018 18 315 6.4 12.9 0.00 0.00 0.00 36 1014.2
20260505174018 18 315 4.8 12.9 0.00 0.00 0.00 38 1014.0
20260505173019 18 270 6.4 12.9 0.00 0.00 0.00 41 1014.0
20260505172019 18 293 6.4 12.9 0.00 0.00 0.00 41 1014.2
20260505171019 17 293 6.4 12.9 0.00 0.00 0.00 42 1014.1
20260505170039 17 293 4.8 11.3 0.00 0.00 0.00 42 1013.7
20260505165018 17 315 4.8 12.9 0.00 0.00 0.00 43 1014.1
20260505164019 16 315 4.8 12.9 0.00 0.00 0.00 41 1013.8
20260505163020 16 293 4.8 12.9 0.00 0.00 0.00 45 1013.8
20260505162018 15 293 4.8 11.3 0.00 0.00 0.00 50 1013.9
20260505161018 15 315 4.8 9.7 0.00 0.00 0.00 58 1013.7
20260505153039 11 248 1.6 6.4 0.00 0.00 0.00 76 1013.2
20260505152019 10 0.0 1.6 0.00 0.00 0.00 81 1012.9
20260505151020 9 0.0 3.2 0.00 0.00 0.00 84 1012.5
20260505125018 6 0.0 1.6 0.00 0.00 0.00 77 1011.6
20260505124038 7 0.0 0.0 0.00 0.00 0.00 75 1011.5
20260505123018 7 203 1.6 3.2 0.00 0.00 0.00 72 1011.6
20260505122018 8 338 1.6 4.8 0.00 0.00 0.00 71 1012.2
20260505121018 8 0.0 0.0 0.00 0.00 0.00 69 1012.3
20260505120019 10 0.0 0.0 0.00 0.00 0.00 67 1012.5
20260505115019 10 0.0 0.0 0.00 0.00 0.00 65 1012.2
20260505114018 11 0.0 3.2 0.00 0.00 0.00 62 1012.5
20260505113019 12 0.0 3.2 0.00 0.00 0.00 61 1012.7
20260505112018 12 338 1.6 4.8 0.00 0.00 0.00 60 1012.7
20260505111018 12 315 3.2 9.7 0.00 0.00 0.00 60 1012.9
20260505102019 13 293 4.8 12.9 0.00 0.00 0.00 53 1013.1
20260505101019 13 293 6.4 9.7 0.00 0.00 0.00 54 1013.5
20260505100018 13 293 3.2 6.4 0.00 0.00 0.00 53 1013.5
20260505095039 13 293 3.2 11.3 0.00 0.00 0.00 51 1013.2
20260505094018 13 315 3.2 8.0 0.00 0.00 0.00 48 1013.2
20260505093018 13 293 6.4 17.7 0.00 0.00 0.00 49 1013.5
20260505092018 13 293 4.8 14.5 0.00 0.00 0.00 51 1013.3
20260505091018 13 315 4.8 9.7 0.00 0.00 0.00 53 1013.1
20260505090038 13 293 4.8 9.7 0.00 0.00 0.00 55 1013.2
20260505085018 13 293 4.8 12.9 0.00 0.00 0.00 56 1013.6
20260505084018 13 315 4.8 12.9 0.00 0.00 0.00 57 1013.3
20260505083038 13 293 6.4 11.3 0.00 0.00 0.00 59 1013.4
20260505082018 13 293 4.8 8.0 0.00 0.00 0.00 60 1013.1
20260505081038 12 270 4.8 6.4 0.00 0.00 0.00 62 1013.0
20260505080018 12 270 3.2 8.0 0.00 0.00 0.00 62 1013.0
20260505075018 13 270 1.6 6.4 0.00 0.00 0.00 61 1012.9
20260505074018 13 270 1.6 6.4 0.00 0.00 0.00 60 1012.9
20260505073018 13 293 3.2 8.0 0.00 0.00 0.00 59 1013.1
20260505072018 13 293 4.8 9.7 0.00 0.00 0.00 59 1012.9